Data supplied by UK-AIR on 1/4/2011
All Data GMT hour ending 
Status: R =Ratified P=Provisional,P*=As supplied
,,Billingham,,,,,,,,,,,,,,,,,,,,,,,
Date,time,"Nitric oxide",status,unit,"Nitrogen dioxide",status,unit,"Nitrogen oxides as nitrogen dioxide",status,unit
 
01-01-2010,01:00,1,R,ugm-3,6,R,ugm-3,8,R,ugm-3
01-01-2010,02:00,5,R,ugm-3,13,R,ugm-3,21,R,ugm-3
01-01-2010,03:00,3,R,ugm-3,8,R,ugm-3,11,R,ugm-3
01-01-2010,04:00,1,R,ugm-3,2,R,ugm-3,4,R,ugm-3
01-01-2010,05:00,1,R,ugm-3,2,R,ugm-3,4,R,ugm-3
01-01-2010,06:00,4,R,ugm-3,8,R,ugm-3,13,R,ugm-3
01-01-2010,07:00,5,R,ugm-3,10,R,ugm-3,17,R,ugm-3
01-01-2010,08:00,25,R,ugm-3,40,R,ugm-3,78,R,ugm-3
01-01-2010,09:00,91,R,ugm-3,134,R,ugm-3,273,R,ugm-3
01-01-2010,10:00,1,R,ugm-3,8,R,ugm-3,10,R,ugm-3
01-01-2010,11:00,1,R,ugm-3,10,R,ugm-3,11,R,ugm-3
01-01-2010,12:00,4,R,ugm-3,10,R,ugm-3,15,R,ugm-3
01-01-2010,13:00,10,R,ugm-3,19,R,ugm-3,34,R,ugm-3
01-01-2010,14:00,1,R,ugm-3,10,R,ugm-3,11,R,ugm-3
01-01-2010,15:00,1,R,ugm-3,8,R,ugm-3,10,R,ugm-3
01-01-2010,16:00,3,R,ugm-3,8,R,ugm-3,11,R,ugm-3
01-01-2010,17:00,1,R,ugm-3,4,R,ugm-3,6,R,ugm-3
01-01-2010,18:00,1,R,ugm-3,6,R,ugm-3,8,R,ugm-3
01-01-2010,19:00,3,R,ugm-3,25,R,ugm-3,29,R,ugm-3
01-01-2010,20:00,1,R,ugm-3,13,R,ugm-3,15,R,ugm-3
01-01-2010,21:00,1,R,ugm-3,11,R,ugm-3,13,R,ugm-3
01-01-2010,22:00,1,R,ugm-3,11,R,ugm-3,13,R,ugm-3
01-01-2010,23:00,1,R,ugm-3,8,R,ugm-3,10,R,ugm-3
01-01-2010,24:00,1,R,ugm-3,6,R,ugm-3,8,R,ugm-3
02-01-2010,01:00,1,R,ugm-3,4,R,ugm-3,6,R,ugm-3
02-01-2010,02:00,0,R,ugm-3,6,R,ugm-3,6,R,ugm-3
02-01-2010,03:00,1,R,ugm-3,6,R,ugm-3,8,R,ugm-3
02-01-2010,04:00,3,R,ugm-3,8,R,ugm-3,11,R,ugm-3
02-01-2010,05:00,4,R,ugm-3,10,R,ugm-3,15,R,ugm-3
02-01-2010,06:00,1,R,ugm-3,8,R,ugm-3,10,R,ugm-3
02-01-2010,07:00,9,R,ugm-3,23,R,ugm-3,36,R,ugm-3
02-01-2010,08:00,19,R,ugm-3,44,R,ugm-3,73,R,ugm-3
02-01-2010,09:00,40,R,ugm-3,61,R,ugm-3,122,R,ugm-3
02-01-2010,10:00,30,R,ugm-3,50,R,ugm-3,96,R,ugm-3
02-01-2010,11:00,21,R,ugm-3,48,R,ugm-3,80,R,ugm-3
02-01-2010,12:00,29,R,ugm-3,55,R,ugm-3,99,R,ugm-3
02-01-2010,13:00,23,R,ugm-3,32,R,ugm-3,67,R,ugm-3
02-01-2010,14:00,13,R,ugm-3,17,R,ugm-3,36,R,ugm-3
02-01-2010,15:00,31,R,ugm-3,19,R,ugm-3,67,R,ugm-3
02-01-2010,16:00,6,R,ugm-3,11,R,ugm-3,21,R,ugm-3
02-01-2010,17:00,1,R,ugm-3,4,R,ugm-3,6,R,ugm-3
02-01-2010,18:00,1,R,ugm-3,6,R,ugm-3,8,R,ugm-3
02-01-2010,19:00,1,R,ugm-3,8,R,ugm-3,10,R,ugm-3
02-01-2010,20:00,1,R,ugm-3,6,R,ugm-3,8,R,ugm-3
02-01-2010,21:00,0,R,ugm-3,10,R,ugm-3,10,R,ugm-3
02-01-2010,22:00,1,R,ugm-3,6,R,ugm-3,8,R,ugm-3
02-01-2010,23:00,1,R,ugm-3,6,R,ugm-3,8,R,ugm-3
02-01-2010,24:00,1,R,ugm-3,2,R,ugm-3,4,R,ugm-3
03-01-2010,01:00,0,R,ugm-3,2,R,ugm-3,2,R,ugm-3
03-01-2010,02:00,83,R,ugm-3,44,R,ugm-3,170,R,ugm-3
03-01-2010,03:00,9,R,ugm-3,25,R,ugm-3,38,R,ugm-3
03-01-2010,04:00,1,R,ugm-3,13,R,ugm-3,15,R,ugm-3
03-01-2010,05:00,3,R,ugm-3,15,R,ugm-3,19,R,ugm-3
03-01-2010,06:00,3,R,ugm-3,13,R,ugm-3,17,R,ugm-3
03-01-2010,07:00,5,R,ugm-3,23,R,ugm-3,31,R,ugm-3
03-01-2010,08:00,4,R,ugm-3,21,R,ugm-3,27,R,ugm-3
03-01-2010,09:00,29,R,ugm-3,42,R,ugm-3,86,R,ugm-3
03-01-2010,10:00,20,R,ugm-3,27,R,ugm-3,57,R,ugm-3
03-01-2010,11:00,11,R,ugm-3,21,R,ugm-3,38,R,ugm-3
03-01-2010,12:00,8,R,ugm-3,19,R,ugm-3,31,R,ugm-3
03-01-2010,13:00,8,R,ugm-3,19,R,ugm-3,31,R,ugm-3
03-01-2010,14:00,43,R,ugm-3,40,R,ugm-3,105,R,ugm-3
03-01-2010,15:00,10,R,ugm-3,25,R,ugm-3,40,R,ugm-3
03-01-2010,16:00,5,R,ugm-3,27,R,ugm-3,34,R,ugm-3
03-01-2010,17:00,6,R,ugm-3,31,R,ugm-3,40,R,ugm-3
03-01-2010,18:00,8,R,ugm-3,36,R,ugm-3,48,R,ugm-3
03-01-2010,19:00,11,R,ugm-3,40,R,ugm-3,57,R,ugm-3
03-01-2010,20:00,28,R,ugm-3,53,R,ugm-3,96,R,ugm-3
03-01-2010,21:00,33,R,ugm-3,55,R,ugm-3,105,R,ugm-3
03-01-2010,22:00,24,R,ugm-3,52,R,ugm-3,88,R,ugm-3
03-01-2010,23:00,15,R,ugm-3,48,R,ugm-3,71,R,ugm-3
03-01-2010,24:00,9,R,ugm-3,40,R,ugm-3,53,R,ugm-3
04-01-2010,01:00,4,R,ugm-3,27,R,ugm-3,32,R,ugm-3
04-01-2010,02:00,3,R,ugm-3,19,R,ugm-3,23,R,ugm-3
04-01-2010,03:00,1,R,ugm-3,17,R,ugm-3,19,R,ugm-3
04-01-2010,04:00,1,R,ugm-3,19,R,ugm-3,21,R,ugm-3
04-01-2010,05:00,3,R,ugm-3,25,R,ugm-3,29,R,ugm-3
04-01-2010,06:00,8,R,ugm-3,42,R,ugm-3,53,R,ugm-3
04-01-2010,07:00,19,R,ugm-3,46,R,ugm-3,74,R,ugm-3
04-01-2010,08:00,43,R,ugm-3,55,R,ugm-3,120,R,ugm-3
04-01-2010,09:00,98,R,ugm-3,96,R,ugm-3,244,R,ugm-3
04-01-2010,10:00,110,R,ugm-3,88,R,ugm-3,256,R,ugm-3
04-01-2010,11:00,106,R,ugm-3,76,R,ugm-3,239,R,ugm-3
04-01-2010,12:00,70,R,ugm-3,63,R,ugm-3,170,R,ugm-3
04-01-2010,13:00,54,R,ugm-3,53,R,ugm-3,136,R,ugm-3
04-01-2010,14:00,61,R,ugm-3,63,R,ugm-3,157,R,ugm-3
04-01-2010,15:00,43,R,ugm-3,50,R,ugm-3,115,R,ugm-3
04-01-2010,16:00,54,R,ugm-3,74,R,ugm-3,157,R,ugm-3
04-01-2010,17:00,50,R,ugm-3,61,R,ugm-3,138,R,ugm-3
04-01-2010,18:00,56,R,ugm-3,59,R,ugm-3,145,R,ugm-3
04-01-2010,19:00,29,R,ugm-3,53,R,ugm-3,97,R,ugm-3
04-01-2010,20:00,16,R,ugm-3,46,R,ugm-3,71,R,ugm-3
04-01-2010,21:00,9,R,ugm-3,32,R,ugm-3,46,R,ugm-3
04-01-2010,22:00,4,R,ugm-3,25,R,ugm-3,31,R,ugm-3
04-01-2010,23:00,4,R,ugm-3,19,R,ugm-3,25,R,ugm-3
04-01-2010,24:00,1,R,ugm-3,21,R,ugm-3,23,R,ugm-3
05-01-2010,01:00,1,R,ugm-3,21,R,ugm-3,23,R,ugm-3
05-01-2010,02:00,0,R,ugm-3,15,R,ugm-3,15,R,ugm-3
05-01-2010,03:00,0,R,ugm-3,21,R,ugm-3,21,R,ugm-3
05-01-2010,04:00,0,R,ugm-3,15,R,ugm-3,15,R,ugm-3
05-01-2010,05:00,6,R,ugm-3,21,R,ugm-3,31,R,ugm-3
05-01-2010,06:00,6,R,ugm-3,23,R,ugm-3,32,R,ugm-3
05-01-2010,07:00,109,R,ugm-3,61,R,ugm-3,227,R,ugm-3
05-01-2010,08:00,211,R,ugm-3,107,R,ugm-3,430,R,ugm-3
05-01-2010,09:00,259,R,ugm-3,170,R,ugm-3,565,R,ugm-3
05-01-2010,10:00,180,R,ugm-3,155,R,ugm-3,430,R,ugm-3
05-01-2010,11:00,96,R,ugm-3,90,R,ugm-3,237,R,ugm-3
05-01-2010,12:00,114,R,ugm-3,84,R,ugm-3,258,R,ugm-3
05-01-2010,13:00,119,R,ugm-3,78,R,ugm-3,260,R,ugm-3
05-01-2010,14:00,118,R,ugm-3,84,R,ugm-3,264,R,ugm-3
05-01-2010,15:00,50,R,ugm-3,53,R,ugm-3,130,R,ugm-3
05-01-2010,16:00,115,R,ugm-3,78,R,ugm-3,254,R,ugm-3
05-01-2010,17:00,106,R,ugm-3,80,R,ugm-3,243,R,ugm-3
05-01-2010,18:00,111,R,ugm-3,71,R,ugm-3,241,R,ugm-3
05-01-2010,19:00,55,R,ugm-3,55,R,ugm-3,139,R,ugm-3
05-01-2010,20:00,19,R,ugm-3,23,R,ugm-3,52,R,ugm-3
05-01-2010,21:00,8,R,ugm-3,13,R,ugm-3,25,R,ugm-3
05-01-2010,22:00,1,R,ugm-3,13,R,ugm-3,15,R,ugm-3
05-01-2010,23:00,1,R,ugm-3,4,R,ugm-3,6,R,ugm-3
05-01-2010,24:00,0,R,ugm-3,8,R,ugm-3,8,R,ugm-3
06-01-2010,01:00,1,R,ugm-3,17,R,ugm-3,19,R,ugm-3
06-01-2010,02:00,4,R,ugm-3,13,R,ugm-3,19,R,ugm-3
06-01-2010,03:00,15,R,ugm-3,31,R,ugm-3,53,R,ugm-3
06-01-2010,04:00,1,R,ugm-3,4,R,ugm-3,6,R,ugm-3
06-01-2010,05:00,1,R,ugm-3,11,R,ugm-3,13,R,ugm-3
06-01-2010,06:00,1,R,ugm-3,15,R,ugm-3,17,R,ugm-3
06-01-2010,07:00,20,R,ugm-3,27,R,ugm-3,57,R,ugm-3
06-01-2010,08:00,73,R,ugm-3,61,R,ugm-3,172,R,ugm-3
06-01-2010,09:00,41,R,ugm-3,40,R,ugm-3,103,R,ugm-3
06-01-2010,10:00,40,R,ugm-3,32,R,ugm-3,94,R,ugm-3
06-01-2010,11:00,31,R,ugm-3,25,R,ugm-3,73,R,ugm-3
06-01-2010,12:00,48,R,ugm-3,36,R,ugm-3,109,R,ugm-3
06-01-2010,13:00,46,R,ugm-3,31,R,ugm-3,101,R,ugm-3
06-01-2010,14:00,46,R,ugm-3,32,R,ugm-3,103,R,ugm-3
06-01-2010,15:00,45,R,ugm-3,34,R,ugm-3,103,R,ugm-3
06-01-2010,16:00,84,R,ugm-3,74,R,ugm-3,202,R,ugm-3
06-01-2010,17:00,45,R,ugm-3,90,R,ugm-3,159,R,ugm-3
06-01-2010,18:00,23,R,ugm-3,40,R,ugm-3,74,R,ugm-3
06-01-2010,19:00,18,R,ugm-3,34,R,ugm-3,61,R,ugm-3
06-01-2010,20:00,20,R,ugm-3,29,R,ugm-3,59,R,ugm-3
06-01-2010,21:00,9,R,ugm-3,17,R,ugm-3,31,R,ugm-3
06-01-2010,22:00,3,R,ugm-3,8,R,ugm-3,11,R,ugm-3
06-01-2010,23:00,3,R,ugm-3,11,R,ugm-3,15,R,ugm-3
06-01-2010,24:00,1,R,ugm-3,10,R,ugm-3,11,R,ugm-3
07-01-2010,01:00,1,R,ugm-3,8,R,ugm-3,10,R,ugm-3
07-01-2010,02:00,1,R,ugm-3,11,R,ugm-3,13,R,ugm-3
07-01-2010,03:00,1,R,ugm-3,8,R,ugm-3,10,R,ugm-3
07-01-2010,04:00,6,R,ugm-3,13,R,ugm-3,23,R,ugm-3
07-01-2010,05:00,3,R,ugm-3,8,R,ugm-3,11,R,ugm-3
07-01-2010,06:00,3,R,ugm-3,10,R,ugm-3,13,R,ugm-3
07-01-2010,07:00,101,R,ugm-3,99,R,ugm-3,254,R,ugm-3
07-01-2010,08:00,154,R,ugm-3,111,R,ugm-3,346,R,ugm-3
07-01-2010,09:00,220,R,ugm-3,340,R,ugm-3,676,R,ugm-3
07-01-2010,10:00,59,R,ugm-3,80,R,ugm-3,170,R,ugm-3
07-01-2010,11:00,54,R,ugm-3,55,R,ugm-3,138,R,ugm-3
07-01-2010,12:00,85,R,ugm-3,73,R,ugm-3,202,R,ugm-3
07-01-2010,13:00,121,R,ugm-3,74,R,ugm-3,260,R,ugm-3
07-01-2010,14:00,151,R,ugm-3,84,R,ugm-3,315,R,ugm-3
07-01-2010,15:00,99,R,ugm-3,73,R,ugm-3,223,R,ugm-3
07-01-2010,16:00,81,R,ugm-3,73,R,ugm-3,197,R,ugm-3
07-01-2010,17:00,68,R,ugm-3,74,R,ugm-3,178,R,ugm-3
07-01-2010,18:00,40,R,ugm-3,71,R,ugm-3,132,R,ugm-3
07-01-2010,19:00,15,R,ugm-3,53,R,ugm-3,76,R,ugm-3
07-01-2010,20:00,18,R,ugm-3,50,R,ugm-3,76,R,ugm-3
07-01-2010,21:00,16,R,ugm-3,50,R,ugm-3,74,R,ugm-3
07-01-2010,22:00,6,R,ugm-3,53,R,ugm-3,63,R,ugm-3
07-01-2010,23:00,3,R,ugm-3,27,R,ugm-3,31,R,ugm-3
07-01-2010,24:00,5,R,ugm-3,42,R,ugm-3,50,R,ugm-3
08-01-2010,01:00,3,R,ugm-3,48,R,ugm-3,52,R,ugm-3
08-01-2010,02:00,0,R,ugm-3,25,R,ugm-3,25,R,ugm-3
08-01-2010,03:00,0,R,ugm-3,23,R,ugm-3,23,R,ugm-3
08-01-2010,04:00,16,R,ugm-3,46,R,ugm-3,71,R,ugm-3
08-01-2010,05:00,18,R,ugm-3,53,R,ugm-3,80,R,ugm-3
08-01-2010,06:00,6,R,ugm-3,21,R,ugm-3,31,R,ugm-3
08-01-2010,07:00,21,R,ugm-3,42,R,ugm-3,74,R,ugm-3
08-01-2010,08:00,21,R,ugm-3,38,R,ugm-3,71,R,ugm-3
08-01-2010,09:00,143,R,ugm-3,117,R,ugm-3,334,R,ugm-3
08-01-2010,10:00,58,R,ugm-3,67,R,ugm-3,155,R,ugm-3
08-01-2010,11:00,76,R,ugm-3,65,R,ugm-3,181,R,ugm-3
08-01-2010,12:00,61,R,ugm-3,65,R,ugm-3,159,R,ugm-3
08-01-2010,13:00,74,R,ugm-3,63,R,ugm-3,176,R,ugm-3
08-01-2010,14:00,73,R,ugm-3,76,R,ugm-3,187,R,ugm-3
08-01-2010,15:00,46,R,ugm-3,61,R,ugm-3,132,R,ugm-3
08-01-2010,16:00,58,R,ugm-3,65,R,ugm-3,153,R,ugm-3
08-01-2010,17:00,64,R,ugm-3,73,R,ugm-3,170,R,ugm-3
08-01-2010,18:00,38,R,ugm-3,55,R,ugm-3,113,R,ugm-3
08-01-2010,19:00,8,R,ugm-3,34,R,ugm-3,46,R,ugm-3
08-01-2010,20:00,16,R,ugm-3,50,R,ugm-3,74,R,ugm-3
08-01-2010,21:00,4,R,ugm-3,40,R,ugm-3,46,R,ugm-3
08-01-2010,22:00,20,R,ugm-3,48,R,ugm-3,78,R,ugm-3
08-01-2010,23:00,19,R,ugm-3,42,R,ugm-3,71,R,ugm-3
08-01-2010,24:00,1,R,ugm-3,31,R,ugm-3,32,R,ugm-3
09-01-2010,01:00,0,R,ugm-3,13,R,ugm-3,13,R,ugm-3
09-01-2010,02:00,0,R,ugm-3,21,R,ugm-3,21,R,ugm-3
09-01-2010,03:00,1,R,ugm-3,25,R,ugm-3,27,R,ugm-3
09-01-2010,04:00,0,R,ugm-3,23,R,ugm-3,23,R,ugm-3
09-01-2010,05:00,3,R,ugm-3,42,R,ugm-3,46,R,ugm-3
09-01-2010,06:00,14,R,ugm-3,57,R,ugm-3,78,R,ugm-3
09-01-2010,07:00,18,R,ugm-3,53,R,ugm-3,80,R,ugm-3
09-01-2010,08:00,100,R,ugm-3,76,R,ugm-3,229,R,ugm-3
09-01-2010,09:00,108,R,ugm-3,78,R,ugm-3,243,R,ugm-3
09-01-2010,10:00,46,R,ugm-3,38,R,ugm-3,109,R,ugm-3
09-01-2010,11:00,26,R,ugm-3,31,R,ugm-3,71,R,ugm-3
09-01-2010,12:00,21,R,ugm-3,25,R,ugm-3,57,R,ugm-3
09-01-2010,13:00,11,R,ugm-3,13,R,ugm-3,31,R,ugm-3
09-01-2010,14:00,8,R,ugm-3,10,R,ugm-3,21,R,ugm-3
09-01-2010,15:00,9,R,ugm-3,17,R,ugm-3,31,R,ugm-3
09-01-2010,16:00,9,R,ugm-3,15,R,ugm-3,29,R,ugm-3
09-01-2010,17:00,11,R,ugm-3,15,R,ugm-3,32,R,ugm-3
09-01-2010,18:00,9,R,ugm-3,17,R,ugm-3,31,R,ugm-3
09-01-2010,19:00,3,R,ugm-3,10,R,ugm-3,13,R,ugm-3
09-01-2010,20:00,1,R,ugm-3,4,R,ugm-3,6,R,ugm-3
09-01-2010,21:00,0,R,ugm-3,6,R,ugm-3,6,R,ugm-3
09-01-2010,22:00,0,R,ugm-3,6,R,ugm-3,6,R,ugm-3
09-01-2010,23:00,0,R,ugm-3,10,R,ugm-3,10,R,ugm-3
09-01-2010,24:00,0,R,ugm-3,4,R,ugm-3,4,R,ugm-3
10-01-2010,01:00,1,R,ugm-3,6,R,ugm-3,8,R,ugm-3
10-01-2010,02:00,1,R,ugm-3,8,R,ugm-3,10,R,ugm-3
10-01-2010,03:00,1,R,ugm-3,4,R,ugm-3,6,R,ugm-3
10-01-2010,04:00,1,R,ugm-3,8,R,ugm-3,10,R,ugm-3
10-01-2010,05:00,0,R,ugm-3,8,R,ugm-3,8,R,ugm-3
10-01-2010,06:00,3,R,ugm-3,10,R,ugm-3,13,R,ugm-3
10-01-2010,07:00,1,R,ugm-3,10,R,ugm-3,11,R,ugm-3
10-01-2010,08:00,1,R,ugm-3,10,R,ugm-3,11,R,ugm-3
10-01-2010,09:00,1,R,ugm-3,6,R,ugm-3,8,R,ugm-3
10-01-2010,10:00,1,R,ugm-3,4,R,ugm-3,6,R,ugm-3
10-01-2010,11:00,1,R,ugm-3,13,R,ugm-3,15,R,ugm-3
10-01-2010,12:00,1,R,ugm-3,13,R,ugm-3,15,R,ugm-3
10-01-2010,13:00,3,R,ugm-3,13,R,ugm-3,17,R,ugm-3
10-01-2010,14:00,1,R,ugm-3,13,R,ugm-3,15,R,ugm-3
10-01-2010,15:00,1,R,ugm-3,11,R,ugm-3,13,R,ugm-3
10-01-2010,16:00,1,R,ugm-3,13,R,ugm-3,15,R,ugm-3
10-01-2010,17:00,1,R,ugm-3,11,R,ugm-3,13,R,ugm-3
10-01-2010,18:00,1,R,ugm-3,8,R,ugm-3,10,R,ugm-3
10-01-2010,19:00,0,R,ugm-3,8,R,ugm-3,8,R,ugm-3
10-01-2010,20:00,1,R,ugm-3,2,R,ugm-3,4,R,ugm-3
10-01-2010,21:00,1,R,ugm-3,6,R,ugm-3,8,R,ugm-3
10-01-2010,22:00,1,R,ugm-3,10,R,ugm-3,11,R,ugm-3
10-01-2010,23:00,3,R,ugm-3,4,R,ugm-3,8,R,ugm-3
10-01-2010,24:00,1,R,ugm-3,4,R,ugm-3,6,R,ugm-3
11-01-2010,01:00,0,R,ugm-3,2,R,ugm-3,2,R,ugm-3
11-01-2010,02:00,0,R,ugm-3,8,R,ugm-3,8,R,ugm-3
11-01-2010,03:00,9,R,ugm-3,15,R,ugm-3,29,R,ugm-3
11-01-2010,04:00,1,R,ugm-3,11,R,ugm-3,13,R,ugm-3
11-01-2010,05:00,1,R,ugm-3,8,R,ugm-3,10,R,ugm-3
11-01-2010,06:00,4,R,ugm-3,10,R,ugm-3,15,R,ugm-3
11-01-2010,07:00,4,R,ugm-3,10,R,ugm-3,15,R,ugm-3
11-01-2010,08:00,38,R,ugm-3,31,R,ugm-3,88,R,ugm-3
11-01-2010,09:00,106,R,ugm-3,96,R,ugm-3,258,R,ugm-3
11-01-2010,10:00,50,R,ugm-3,46,R,ugm-3,122,R,ugm-3
11-01-2010,11:00,44,R,ugm-3,34,R,ugm-3,101,R,ugm-3
11-01-2010,12:00,103,R,ugm-3,80,R,ugm-3,237,R,ugm-3
11-01-2010,13:00,81,R,ugm-3,59,R,ugm-3,183,R,ugm-3
11-01-2010,14:00,24,R,ugm-3,21,R,ugm-3,57,R,ugm-3
11-01-2010,15:00,29,R,ugm-3,38,R,ugm-3,82,R,ugm-3
11-01-2010,16:00,49,R,ugm-3,63,R,ugm-3,138,R,ugm-3
11-01-2010,17:00,13,R,ugm-3,19,R,ugm-3,38,R,ugm-3
11-01-2010,18:00,9,R,ugm-3,23,R,ugm-3,36,R,ugm-3
11-01-2010,19:00,1,R,ugm-3,10,R,ugm-3,11,R,ugm-3
11-01-2010,20:00,1,R,ugm-3,11,R,ugm-3,13,R,ugm-3
11-01-2010,21:00,1,R,ugm-3,11,R,ugm-3,13,R,ugm-3
11-01-2010,22:00,1,R,ugm-3,13,R,ugm-3,15,R,ugm-3
11-01-2010,23:00,1,R,ugm-3,23,R,ugm-3,25,R,ugm-3
11-01-2010,24:00,1,R,ugm-3,19,R,ugm-3,21,R,ugm-3
12-01-2010,01:00,1,R,ugm-3,10,R,ugm-3,11,R,ugm-3
12-01-2010,02:00,18,R,ugm-3,17,R,ugm-3,44,R,ugm-3
12-01-2010,03:00,1,R,ugm-3,6,R,ugm-3,8,R,ugm-3
12-01-2010,04:00,0,R,ugm-3,2,R,ugm-3,2,R,ugm-3
12-01-2010,05:00,0,R,ugm-3,4,R,ugm-3,4,R,ugm-3
12-01-2010,06:00,3,R,ugm-3,17,R,ugm-3,21,R,ugm-3
12-01-2010,07:00,1,R,ugm-3,15,R,ugm-3,17,R,ugm-3
12-01-2010,08:00,16,R,ugm-3,31,R,ugm-3,55,R,ugm-3
12-01-2010,09:00,50,R,ugm-3,50,R,ugm-3,126,R,ugm-3
12-01-2010,10:00,11,R,ugm-3,31,R,ugm-3,48,R,ugm-3
12-01-2010,11:00,15,R,ugm-3,21,R,ugm-3,44,R,ugm-3
12-01-2010,12:00,50,R,ugm-3,44,R,ugm-3,120,R,ugm-3
12-01-2010,13:00,8,R,ugm-3,13,R,ugm-3,25,R,ugm-3
12-01-2010,14:00,13,R,ugm-3,17,R,ugm-3,36,R,ugm-3
12-01-2010,15:00,25,R,ugm-3,23,R,ugm-3,61,R,ugm-3
12-01-2010,16:00,48,R,ugm-3,15,R,ugm-3,88,R,ugm-3
12-01-2010,17:00,10,R,ugm-3,13,R,ugm-3,29,R,ugm-3
12-01-2010,18:00,5,R,ugm-3,10,R,ugm-3,17,R,ugm-3
12-01-2010,19:00,1,R,ugm-3,8,R,ugm-3,10,R,ugm-3
12-01-2010,20:00,1,R,ugm-3,8,R,ugm-3,10,R,ugm-3
12-01-2010,21:00,1,R,ugm-3,10,R,ugm-3,11,R,ugm-3
12-01-2010,22:00,0,R,ugm-3,10,R,ugm-3,10,R,ugm-3
12-01-2010,23:00,1,R,ugm-3,11,R,ugm-3,13,R,ugm-3
12-01-2010,24:00,1,R,ugm-3,8,R,ugm-3,10,R,ugm-3
13-01-2010,01:00,1,R,ugm-3,25,R,ugm-3,27,R,ugm-3
13-01-2010,02:00,3,R,ugm-3,11,R,ugm-3,15,R,ugm-3
13-01-2010,03:00,0,R,ugm-3,8,R,ugm-3,8,R,ugm-3
13-01-2010,04:00,0,R,ugm-3,8,R,ugm-3,8,R,ugm-3
13-01-2010,05:00,1,R,ugm-3,10,R,ugm-3,11,R,ugm-3
13-01-2010,06:00,1,R,ugm-3,17,R,ugm-3,19,R,ugm-3
13-01-2010,07:00,1,R,ugm-3,17,R,ugm-3,19,R,ugm-3
13-01-2010,08:00,26,R,ugm-3,34,R,ugm-3,74,R,ugm-3
13-01-2010,09:00,79,R,ugm-3,67,R,ugm-3,187,R,ugm-3
13-01-2010,10:00,30,R,ugm-3,38,R,ugm-3,84,R,ugm-3
13-01-2010,11:00,46,R,ugm-3,69,R,ugm-3,139,R,ugm-3
13-01-2010,12:00,44,R,ugm-3,52,R,ugm-3,118,R,ugm-3
13-01-2010,13:00,18,R,ugm-3,29,R,ugm-3,55,R,ugm-3
13-01-2010,14:00,55,R,ugm-3,44,R,ugm-3,128,R,ugm-3
13-01-2010,15:00,40,R,ugm-3,55,R,ugm-3,117,R,ugm-3
13-01-2010,16:00,55,R,ugm-3,48,R,ugm-3,132,R,ugm-3
13-01-2010,17:00,19,R,ugm-3,38,R,ugm-3,67,R,ugm-3
13-01-2010,18:00,10,R,ugm-3,38,R,ugm-3,53,R,ugm-3
13-01-2010,19:00,16,R,ugm-3,42,R,ugm-3,67,R,ugm-3
13-01-2010,20:00,14,R,ugm-3,40,R,ugm-3,61,R,ugm-3
13-01-2010,21:00,8,R,ugm-3,38,R,ugm-3,50,R,ugm-3
13-01-2010,22:00,4,R,ugm-3,32,R,ugm-3,38,R,ugm-3
13-01-2010,23:00,3,R,ugm-3,29,R,ugm-3,32,R,ugm-3
13-01-2010,24:00,5,R,ugm-3,29,R,ugm-3,36,R,ugm-3
14-01-2010,01:00,8,R,ugm-3,32,R,ugm-3,44,R,ugm-3
14-01-2010,02:00,6,R,ugm-3,36,R,ugm-3,46,R,ugm-3
14-01-2010,03:00,16,R,ugm-3,34,R,ugm-3,59,R,ugm-3
14-01-2010,04:00,19,R,ugm-3,34,R,ugm-3,63,R,ugm-3
14-01-2010,05:00,11,R,ugm-3,32,R,ugm-3,50,R,ugm-3
14-01-2010,06:00,10,R,ugm-3,31,R,ugm-3,46,R,ugm-3
14-01-2010,07:00,14,R,ugm-3,32,R,ugm-3,53,R,ugm-3
14-01-2010,08:00,34,R,ugm-3,44,R,ugm-3,96,R,ugm-3
14-01-2010,09:00,66,R,ugm-3,73,R,ugm-3,174,R,ugm-3
14-01-2010,10:00,49,R,ugm-3,40,R,ugm-3,115,R,ugm-3
14-01-2010,11:00,53,R,ugm-3,38,R,ugm-3,118,R,ugm-3
14-01-2010,12:00,48,R,ugm-3,34,R,ugm-3,107,R,ugm-3
14-01-2010,13:00,39,R,ugm-3,32,R,ugm-3,92,R,ugm-3
14-01-2010,14:00,,,,,,,,,
14-01-2010,15:00,56,R,ugm-3,53,R,ugm-3,139,R,ugm-3
14-01-2010,16:00,78,R,ugm-3,48,R,ugm-3,166,R,ugm-3
14-01-2010,17:00,54,R,ugm-3,53,R,ugm-3,136,R,ugm-3
14-01-2010,18:00,31,R,ugm-3,48,R,ugm-3,96,R,ugm-3
14-01-2010,19:00,45,R,ugm-3,48,R,ugm-3,117,R,ugm-3
14-01-2010,20:00,46,R,ugm-3,46,R,ugm-3,117,R,ugm-3
14-01-2010,21:00,49,R,ugm-3,46,R,ugm-3,120,R,ugm-3
14-01-2010,22:00,45,R,ugm-3,44,R,ugm-3,113,R,ugm-3
14-01-2010,23:00,41,R,ugm-3,42,R,ugm-3,105,R,ugm-3
14-01-2010,24:00,29,R,ugm-3,42,R,ugm-3,86,R,ugm-3
15-01-2010,01:00,26,R,ugm-3,40,R,ugm-3,80,R,ugm-3
15-01-2010,02:00,30,R,ugm-3,40,R,ugm-3,86,R,ugm-3
15-01-2010,03:00,26,R,ugm-3,38,R,ugm-3,78,R,ugm-3
15-01-2010,04:00,6,R,ugm-3,36,R,ugm-3,46,R,ugm-3
15-01-2010,05:00,3,R,ugm-3,25,R,ugm-3,29,R,ugm-3
15-01-2010,06:00,8,R,ugm-3,32,R,ugm-3,44,R,ugm-3
15-01-2010,07:00,13,R,ugm-3,40,R,ugm-3,59,R,ugm-3
15-01-2010,08:00,34,R,ugm-3,52,R,ugm-3,103,R,ugm-3
15-01-2010,09:00,55,R,ugm-3,65,R,ugm-3,149,R,ugm-3
15-01-2010,10:00,80,R,ugm-3,63,R,ugm-3,185,R,ugm-3
15-01-2010,11:00,43,R,ugm-3,57,R,ugm-3,122,R,ugm-3
15-01-2010,12:00,28,R,ugm-3,50,R,ugm-3,92,R,ugm-3
15-01-2010,13:00,15,R,ugm-3,40,R,ugm-3,63,R,ugm-3
15-01-2010,14:00,16,R,ugm-3,48,R,ugm-3,73,R,ugm-3
15-01-2010,15:00,16,R,ugm-3,42,R,ugm-3,67,R,ugm-3
15-01-2010,16:00,26,R,ugm-3,55,R,ugm-3,96,R,ugm-3
15-01-2010,17:00,14,R,ugm-3,48,R,ugm-3,69,R,ugm-3
15-01-2010,18:00,14,R,ugm-3,46,R,ugm-3,67,R,ugm-3
15-01-2010,19:00,11,R,ugm-3,48,R,ugm-3,65,R,ugm-3
15-01-2010,20:00,13,R,ugm-3,46,R,ugm-3,65,R,ugm-3
15-01-2010,21:00,10,R,ugm-3,34,R,ugm-3,50,R,ugm-3
15-01-2010,22:00,10,R,ugm-3,34,R,ugm-3,50,R,ugm-3
15-01-2010,23:00,16,R,ugm-3,44,R,ugm-3,69,R,ugm-3
15-01-2010,24:00,11,R,ugm-3,36,R,ugm-3,53,R,ugm-3
16-01-2010,01:00,9,R,ugm-3,31,R,ugm-3,44,R,ugm-3
16-01-2010,02:00,45,R,ugm-3,53,R,ugm-3,122,R,ugm-3
16-01-2010,03:00,46,R,ugm-3,42,R,ugm-3,113,R,ugm-3
16-01-2010,04:00,6,R,ugm-3,15,R,ugm-3,25,R,ugm-3
16-01-2010,05:00,5,R,ugm-3,13,R,ugm-3,21,R,ugm-3
16-01-2010,06:00,10,R,ugm-3,19,R,ugm-3,34,R,ugm-3
16-01-2010,07:00,4,R,ugm-3,11,R,ugm-3,17,R,ugm-3
16-01-2010,08:00,1,R,ugm-3,8,R,ugm-3,10,R,ugm-3
16-01-2010,09:00,1,R,ugm-3,8,R,ugm-3,10,R,ugm-3
16-01-2010,10:00,4,R,ugm-3,15,R,ugm-3,21,R,ugm-3
16-01-2010,11:00,10,R,ugm-3,42,R,ugm-3,57,R,ugm-3
16-01-2010,12:00,11,R,ugm-3,36,R,ugm-3,53,R,ugm-3
16-01-2010,13:00,10,R,ugm-3,34,R,ugm-3,50,R,ugm-3
16-01-2010,14:00,5,R,ugm-3,27,R,ugm-3,34,R,ugm-3
16-01-2010,15:00,5,R,ugm-3,31,R,ugm-3,38,R,ugm-3
16-01-2010,16:00,16,R,ugm-3,57,R,ugm-3,82,R,ugm-3
16-01-2010,17:00,6,R,ugm-3,31,R,ugm-3,40,R,ugm-3
16-01-2010,18:00,4,R,ugm-3,27,R,ugm-3,32,R,ugm-3
16-01-2010,19:00,5,R,ugm-3,29,R,ugm-3,36,R,ugm-3
16-01-2010,20:00,5,R,ugm-3,31,R,ugm-3,38,R,ugm-3
16-01-2010,21:00,5,R,ugm-3,31,R,ugm-3,38,R,ugm-3
16-01-2010,22:00,4,R,ugm-3,23,R,ugm-3,29,R,ugm-3
16-01-2010,23:00,4,R,ugm-3,23,R,ugm-3,29,R,ugm-3
16-01-2010,24:00,3,R,ugm-3,21,R,ugm-3,25,R,ugm-3
17-01-2010,01:00,3,R,ugm-3,21,R,ugm-3,25,R,ugm-3
17-01-2010,02:00,1,R,ugm-3,27,R,ugm-3,29,R,ugm-3
17-01-2010,03:00,3,R,ugm-3,23,R,ugm-3,27,R,ugm-3
17-01-2010,04:00,1,R,ugm-3,21,R,ugm-3,23,R,ugm-3
17-01-2010,05:00,1,R,ugm-3,21,R,ugm-3,23,R,ugm-3
17-01-2010,06:00,1,R,ugm-3,19,R,ugm-3,21,R,ugm-3
17-01-2010,07:00,5,R,ugm-3,34,R,ugm-3,42,R,ugm-3
17-01-2010,08:00,3,R,ugm-3,23,R,ugm-3,27,R,ugm-3
17-01-2010,09:00,1,R,ugm-3,19,R,ugm-3,21,R,ugm-3
17-01-2010,10:00,3,R,ugm-3,17,R,ugm-3,21,R,ugm-3
17-01-2010,11:00,5,R,ugm-3,19,R,ugm-3,27,R,ugm-3
17-01-2010,12:00,4,R,ugm-3,17,R,ugm-3,23,R,ugm-3
17-01-2010,13:00,4,R,ugm-3,13,R,ugm-3,19,R,ugm-3
17-01-2010,14:00,4,R,ugm-3,15,R,ugm-3,21,R,ugm-3
17-01-2010,15:00,5,R,ugm-3,25,R,ugm-3,32,R,ugm-3
17-01-2010,16:00,8,R,ugm-3,38,R,ugm-3,50,R,ugm-3
17-01-2010,17:00,5,R,ugm-3,44,R,ugm-3,52,R,ugm-3
17-01-2010,18:00,4,R,ugm-3,36,R,ugm-3,42,R,ugm-3
17-01-2010,19:00,4,R,ugm-3,34,R,ugm-3,40,R,ugm-3
17-01-2010,20:00,4,R,ugm-3,34,R,ugm-3,40,R,ugm-3
17-01-2010,21:00,3,R,ugm-3,32,R,ugm-3,36,R,ugm-3
17-01-2010,22:00,3,R,ugm-3,25,R,ugm-3,29,R,ugm-3
17-01-2010,23:00,1,R,ugm-3,15,R,ugm-3,17,R,ugm-3
17-01-2010,24:00,1,R,ugm-3,11,R,ugm-3,13,R,ugm-3
18-01-2010,01:00,0,R,ugm-3,8,R,ugm-3,8,R,ugm-3
18-01-2010,02:00,0,R,ugm-3,11,R,ugm-3,11,R,ugm-3
18-01-2010,03:00,0,R,ugm-3,8,R,ugm-3,8,R,ugm-3
18-01-2010,04:00,1,R,ugm-3,6,R,ugm-3,8,R,ugm-3
18-01-2010,05:00,0,R,ugm-3,6,R,ugm-3,6,R,ugm-3
18-01-2010,06:00,0,R,ugm-3,8,R,ugm-3,8,R,ugm-3
18-01-2010,07:00,1,R,ugm-3,11,R,ugm-3,13,R,ugm-3
18-01-2010,08:00,14,R,ugm-3,32,R,ugm-3,53,R,ugm-3
18-01-2010,09:00,28,R,ugm-3,42,R,ugm-3,84,R,ugm-3
18-01-2010,10:00,23,R,ugm-3,46,R,ugm-3,80,R,ugm-3
18-01-2010,11:00,21,R,ugm-3,44,R,ugm-3,76,R,ugm-3
18-01-2010,12:00,30,R,ugm-3,46,R,ugm-3,92,R,ugm-3
18-01-2010,13:00,24,R,ugm-3,29,R,ugm-3,65,R,ugm-3
18-01-2010,14:00,28,R,ugm-3,38,R,ugm-3,80,R,ugm-3
18-01-2010,15:00,34,R,ugm-3,44,R,ugm-3,96,R,ugm-3
18-01-2010,16:00,95,R,ugm-3,90,R,ugm-3,235,R,ugm-3
18-01-2010,17:00,58,R,ugm-3,65,R,ugm-3,153,R,ugm-3
18-01-2010,18:00,54,R,ugm-3,65,R,ugm-3,147,R,ugm-3
18-01-2010,19:00,41,R,ugm-3,61,R,ugm-3,124,R,ugm-3
18-01-2010,20:00,28,R,ugm-3,55,R,ugm-3,97,R,ugm-3
18-01-2010,21:00,59,R,ugm-3,65,R,ugm-3,155,R,ugm-3
18-01-2010,22:00,68,R,ugm-3,61,R,ugm-3,164,R,ugm-3
18-01-2010,23:00,88,R,ugm-3,59,R,ugm-3,193,R,ugm-3
18-01-2010,24:00,50,R,ugm-3,48,R,ugm-3,124,R,ugm-3
19-01-2010,01:00,18,R,ugm-3,34,R,ugm-3,61,R,ugm-3
19-01-2010,02:00,44,R,ugm-3,40,R,ugm-3,107,R,ugm-3
19-01-2010,03:00,36,R,ugm-3,32,R,ugm-3,88,R,ugm-3
19-01-2010,04:00,28,R,ugm-3,29,R,ugm-3,71,R,ugm-3
19-01-2010,05:00,25,R,ugm-3,27,R,ugm-3,65,R,ugm-3
19-01-2010,06:00,55,R,ugm-3,32,R,ugm-3,117,R,ugm-3
19-01-2010,07:00,103,R,ugm-3,36,R,ugm-3,193,R,ugm-3
19-01-2010,08:00,248,R,ugm-3,84,R,ugm-3,462,R,ugm-3
19-01-2010,09:00,259,R,ugm-3,94,R,ugm-3,489,R,ugm-3
19-01-2010,10:00,278,R,ugm-3,80,R,ugm-3,504,R,ugm-3
19-01-2010,11:00,239,R,ugm-3,105,R,ugm-3,470,R,ugm-3
19-01-2010,12:00,214,R,ugm-3,82,R,ugm-3,409,R,ugm-3
19-01-2010,13:00,141,R,ugm-3,76,R,ugm-3,292,R,ugm-3
19-01-2010,14:00,108,R,ugm-3,69,R,ugm-3,233,R,ugm-3
19-01-2010,15:00,73,R,ugm-3,55,R,ugm-3,166,R,ugm-3
19-01-2010,16:00,,,,,,,,,
19-01-2010,17:00,,,,,,,,,
19-01-2010,18:00,3,R,ugm-3,8,R,ugm-3,11,R,ugm-3
19-01-2010,19:00,1,R,ugm-3,8,R,ugm-3,10,R,ugm-3
19-01-2010,20:00,1,R,ugm-3,6,R,ugm-3,8,R,ugm-3
19-01-2010,21:00,1,R,ugm-3,4,R,ugm-3,6,R,ugm-3
19-01-2010,22:00,1,R,ugm-3,6,R,ugm-3,8,R,ugm-3
19-01-2010,23:00,1,R,ugm-3,4,R,ugm-3,6,R,ugm-3
19-01-2010,24:00,0,R,ugm-3,2,R,ugm-3,2,R,ugm-3
20-01-2010,01:00,1,R,ugm-3,4,R,ugm-3,6,R,ugm-3
20-01-2010,02:00,1,R,ugm-3,8,R,ugm-3,10,R,ugm-3
20-01-2010,03:00,1,R,ugm-3,10,R,ugm-3,11,R,ugm-3
20-01-2010,04:00,1,R,ugm-3,6,R,ugm-3,8,R,ugm-3
20-01-2010,05:00,0,R,ugm-3,6,R,ugm-3,6,R,ugm-3
20-01-2010,06:00,1,R,ugm-3,4,R,ugm-3,6,R,ugm-3
20-01-2010,07:00,10,R,ugm-3,17,R,ugm-3,32,R,ugm-3
20-01-2010,08:00,11,R,ugm-3,19,R,ugm-3,36,R,ugm-3
20-01-2010,09:00,106,R,ugm-3,74,R,ugm-3,237,R,ugm-3
20-01-2010,10:00,106,R,ugm-3,42,R,ugm-3,204,R,ugm-3
20-01-2010,11:00,29,R,ugm-3,32,R,ugm-3,76,R,ugm-3
20-01-2010,12:00,16,R,ugm-3,31,R,ugm-3,55,R,ugm-3
20-01-2010,13:00,16,R,ugm-3,21,R,ugm-3,46,R,ugm-3
20-01-2010,14:00,25,R,ugm-3,32,R,ugm-3,71,R,ugm-3
20-01-2010,15:00,14,R,ugm-3,34,R,ugm-3,55,R,ugm-3
20-01-2010,16:00,55,R,ugm-3,80,R,ugm-3,164,R,ugm-3
20-01-2010,17:00,14,R,ugm-3,31,R,ugm-3,52,R,ugm-3
20-01-2010,18:00,9,R,ugm-3,21,R,ugm-3,34,R,ugm-3
20-01-2010,19:00,3,R,ugm-3,15,R,ugm-3,19,R,ugm-3
20-01-2010,20:00,4,R,ugm-3,25,R,ugm-3,31,R,ugm-3
20-01-2010,21:00,3,R,ugm-3,15,R,ugm-3,19,R,ugm-3
20-01-2010,22:00,0,R,ugm-3,8,R,ugm-3,8,R,ugm-3
20-01-2010,23:00,1,R,ugm-3,11,R,ugm-3,13,R,ugm-3
20-01-2010,24:00,3,R,ugm-3,15,R,ugm-3,19,R,ugm-3